Tracking 29510 objects as of 16-Sep-2024
HD Live streaming from Space Station
objects crossing your sky now

ONEWEB-0596

Track ONEWEB-0596 now!
10-day predictions
ONEWEB-0596 is classified as:


NORAD ID: 54662
Int'l Code: 2022-166W
Perigee: 1,183.5 km
Apogee: 1,186.3 km
Inclination: 87.9 °
Period: 108.9 minutes
Semi major axis: 7555 km
RCS: Unknown
Launch date: December 8, 2022
Source: United Kingdom (UK)
Launch site: AIR FORCE EASTERN TEST RANGE (AFETR)
Your satellite tracking list
Your tracking list is empty




NASA's NSSDC Master Catalog

Two Line Element Set (TLE):
1 54662U 22166W   24259.06521436  .00000172  00000-0  38444-3 0  9995
2 54662  87.9361  11.4301 0001796  89.9902 270.1437 13.21825210 87441
Source of the keplerian elements: AFSPC